Location: Breitenberg
(51.5466°N, 10.2883°E)
Time: 12:54:08
(UTC+00:00)

Daily predictions for brighter satellites

Satellite Brightness Start Highest point End
(mag) Time Altitude Azimuth Time Altitude Azimuth Time Altitude Azimuth
Cosmos 1782 2.8 15:40:17 10° S 15:44:15 68° E 15:48:13 10° NNE
BREEZE-M R/B 3.8 15:39:56 10° WSW 15:47:33 66° S 15:51:16 10° E
Cosmos 1900 4.5 15:42:51 10° NNW 15:47:40 51° NE 15:52:25 10° ESE
ALOS 2.6 15:47:10 10° S 15:51:50 75° WSW 15:56:32 10° NNW
ISS -2.4 15:49:13 10° W 15:52:24 42° SSW 15:55:37 10° SE
NOSS 2-2 (D) 4.3 15:49:07 10° WSW 15:52:44 41° NNW 15:57:06 10° NE
Cosmos 304 Rocket 4.0 15:48:00 10° NNW 15:52:50 79° WSW 15:57:38 10° SSE
Cosmos 1315 Rocket 2.8 15:49:19 10° S 15:53:17 66° E 15:57:19 10° NNE
Cosmos 2333 Rocket 2.5 15:48:50 10° S 15:54:25 55° ESE 16:00:03 10° NE
Cosmos 2237 Rocket 3.4 15:52:11 10° SSE 15:56:42 25° ESE 16:01:13 10° NE
Cosmos 1484 Rocket 4.4 15:54:05 10° SSW 15:57:53 41° W 16:01:42 10° NNW
Radarsat Rocket 4.0 15:53:54 10° SSE 16:00:00 89° WSW 16:05:52 10° NNW
Cosmos 2322 Rocket 3.4 15:55:00 10° WSW 16:00:11 37° NW 16:05:26 10° NNE
Cosmos 1400 Rocket 4.0 15:56:21 10° SW 16:00:17 45° WNW 16:04:11 10° N
H-2A R/B 4.1 15:57:22 10° N 16:00:40 23° WNW 16:03:56 10° WSW
Meteor 1-10 Rocket 4.4 15:57:02 10° S 16:02:22 51° E 16:07:48 10° NNE
Cosmos 292 Rocket 4.4 15:58:36 10° NNW 16:03:06 35° NE 16:07:34 10° ESE
YAOGAN 1 4.2 16:02:50 10° E 16:05:05 14° NE 16:07:22 10° NNE
Cosmos 1812 3.6 16:02:01 10° SSE 16:05:25 30° E 16:08:50 10° NNE
Envisat 3.7 16:01:02 10° ESE 16:05:27 31° ENE 16:09:53 10° N
CORIOLIS 4.4 16:00:32 10° SE 16:05:43 47° ENE 16:10:56 10° N
Helios 1A Rocket 3.3 16:02:18 10° S 16:06:23 71° WSW 16:10:29 10° NNW
COSMOS 2455 3.9 16:01:23 10° WSW 16:07:01 39° NW 16:12:41 10° NNE
SL-16 R/B 3.6 16:03:34 10° WSW 16:08:33 31° NW 16:13:35 10° NNE
Cosmos 2219 Rocket 2.2 16:03:27 10° SSW 16:09:01 68° ESE 16:14:39 10° NE
ATLAS 3B R/B 4.2 16:03:11 10° NW 16:09:22 41° WSW 16:15:41 10° S
YAOGAN 6 4.1 16:09:31 10° ESE 16:11:52 17° ENE 16:14:16 10° NNE
Cosmos 1340 4.0 16:08:44 10° NNW 16:12:20 43° W 16:15:56 10° SSW
Cosmos 1733 Rocket 3.0 16:08:16 10° N 16:12:38 65° ENE 16:17:00 10° SSE
IRS-1C Rocket 4.1 16:07:40 10° SSE 16:12:53 66° ENE 16:18:08 10° N
Cosmos 1992 Rocket 4.0 16:08:39 10° NNW 16:13:53 67° ENE 16:19:05 10° SE
Meteor 1-11 Rocket 3.8 16:08:27 10° N 16:14:26 68° ENE 16:20:21 10° SSE
USA 267 3.6 16:08:20 10° SE 16:14:52 70° SW 16:21:25 10° WNW
CZ-4B R/B 2.6 16:11:55 10° N 16:15:17 44° WNW 16:18:37 10° SW
Exosat Rocket 4.0 16:11:25 10° S 16:16:15 40° ESE 16:20:57 10° NE
Cosmos 1500 3.1 16:12:49 10° N 16:16:35 60° ENE 16:20:17 10° SSE
Cosmos 1943 Rocket 3.4 16:13:49 10° NNW 16:18:05 21° NE 16:21:33 13° ENE
NOSS 3-4 (A) 3.6 16:13:29 10° SW 16:19:33 77° NW 16:25:51 11° NE
NOSS 3-4 (C) 3.6 16:13:35 10° SW 16:19:40 78° NW 16:25:57 11° NE
Meteor 1-27 Rocket 4.1 16:15:06 10° SSE 16:20:33 46° E 16:26:09 10° NNE
BREEZE-M DEB (TANK) 3.4 16:16:59 10° W 16:24:15 53° SSW 16:27:02 10° ESE
Cosmos 1867 4.2 16:20:04 10° NW 16:25:08 36° NNE 16:29:57 11° E
Cosmos 1980 4.1 16:22:12 10° S 16:27:28 42° ESE 16:32:12 13° NE
ATLAS 5 CENTAUR R/B 2.7 16:27:59 10° SSE 16:29:15 14° SE 16:29:35 13° ESE
Cosmos 2297 4.0 16:25:45 10° NNW 16:31:16 46° NE 16:36:43 10° ESE
CSL-04 Rocket 4.4 16:27:56 10° ESE 16:32:23 28° ENE 16:36:51 10° N
RESURS DK-1 2.3 16:29:31 10° SSW 16:33:39 87° ESE 16:37:12 14° NNE
Cosmos 921 Rocket 3.6 16:30:53 10° N 16:34:46 33° ENE 16:38:40 10° SE
Cosmos 1441 Rocket 3.9 16:32:00 10° N 16:35:29 31° ENE 16:38:52 10° SE
Cosmos 1689 Rocket 3.6 16:33:31 10° N 16:36:22 36° WNW 16:39:11 10° SW
NOSS 0 Rocket 4.1 16:30:43 10° SSW 16:36:47 58° ESE 16:42:16 13° NE
H-2A R/B 2.5 16:33:07 10° SSE 16:36:48 82° ENE 16:40:31 10° NNW
Cosmos 1782 Rocket 4.1 16:39:25 10° N 16:43:25 34° ENE 16:47:21 10° SE
Sich 1 Rocket 4.4 16:40:50 10° N 16:44:41 28° ENE 16:48:29 10° SE
Feng Yun 1-1 Rocket 4.3 16:40:48 10° SSE 16:46:11 77° WSW 16:51:38 10° NNW
COSMOS 2428 2.9 16:41:25 10° SW 16:47:05 72° WNW 16:52:35 11° NNE
Ariane Rocket 4.3 16:49:09 20° NE 16:49:09 20° NE 16:52:27 10° N
Cosmos 1536 2.8 16:46:28 10° N 16:50:31 90° ENE 16:54:31 10° S
Cosmos 1862 Rocket 3.5 16:50:18 10° S 16:54:40 88° WNW 16:59:06 10° N
Genesis I 3.0 16:50:55 10° NW 16:54:51 76° NE 16:58:24 12° SE
ATLAS 2AS CENTAUR R/B 3.6 16:49:55 10° WSW 16:57:45 52° NNW 17:03:59 17° NE
Cosmos 1703 Rocket 4.0 16:53:38 10° SSE 16:57:48 40° E 17:00:18 21° NE
Okean O Rocket 4.2 16:56:17 10° SW 16:59:43 23° W 17:03:12 10° NW
Cosmos 1666 2.5 16:57:13 10° N 17:00:59 80° E 17:04:43 10° SSE
SeaSat 1 3.7 17:02:16 22° NE 17:02:27 22° NE 17:06:12 10° NNW
STARLINK-67 2.6 17:00:17 10° W 17:03:02 61° N 17:03:16 57° NNE
Cosmos 1092 Rocket 4.0 16:57:40 10° S 17:03:52 63° E 17:10:03 10° NNE
Lacrosse 5 rocket 1.2 17:00:17 10° WSW 17:04:33 87° SSE 17:06:10 36° ENE
Cosmos 2242 Rocket 3.5 17:02:03 10° S 17:06:37 79° E 17:11:14 10° NNE
NOAA 11 4.5 17:06:03 10° SE 17:11:09 42° ENE 17:16:18 10° N
Cosmos 2278 Rocket 3.6 17:06:10 10° NW 17:11:26 40° WSW 17:16:38 10° S
Aureole 1 Rocket 2.9 17:09:02 10° S 17:11:22 38° SE 17:11:22 38° SE
SL-4 R/B 1.8 17:08:10 10° W 17:11:58 87° SSE 17:13:11 44° E
CZ-4 R/B 1.2 17:08:46 10° SSE 17:12:35 57° ENE 17:16:23 10° N
Lacrosse 4 Rocket 3.7 17:11:28 10° N 17:12:01 11° N 17:12:01 11° N
Okean 1 4.5 17:11:42 10° SSE 17:13:59 26° SE 17:13:59 26° SE
FengYun 1-2 T 4.1 17:10:03 10° SSE 17:15:31 80° ENE 17:21:04 10° NNW
Okean-O 3.0 17:13:07 10° S 17:17:32 65° WSW 17:21:58 10° NNW
STARLINK-46 2.9 17:15:19 10° W 17:17:37 62° W 17:17:37 62° W
Cosmos 2360 Rocket 4.0 17:13:41 10° W 17:18:14 24° NW 17:22:48 10° NNE
USA 215 3.3 17:17:57 28° ENE 17:21:45 78° NNW 17:28:17 10° WSW
Cosmos 2344 4.3 17:15:32 10° NW 17:24:05 54° NNE 17:30:40 27° E
STARLINK-29 4.5 17:21:20 10° SSW 17:24:05 28° SSE 17:24:05 28° SSE
Cosmos 2369 Rocket 2.6 17:19:28 10° NNW 17:24:44 39° NE 17:25:28 37° ENE
Cosmos 1743 2.6 17:22:46 10° N 17:26:39 67° ENE 17:30:30 10° SSE
Cosmos 1908 Rocket 4.2 17:22:24 10° NNW 17:26:45 58° W 17:31:01 10° S
Cosmos 1980 Rocket 4.5 17:25:23 10° NNW 17:26:51 11° N 17:28:18 10° N
ISS -0.5 17:27:31 10° WSW 17:28:29 11° SW 17:29:28 10° SSW
Uosat 12 SS-18 rocket 4.4 17:23:39 10° NW 17:28:39 49° NE 17:29:09 47° ENE
SL-16 R/B 2.4 17:24:20 10° S 17:29:45 47° ESE 17:30:56 41° ENE
COSMO-SKYMED 1 2.4 17:29:39 44° NE 17:30:55 68° ESE 17:35:13 10° S
S3M 4.1 17:26:36 10° N 17:32:41 50° ENE 17:38:38 10° SSE
Cosmos 2251 Rocket 4.2 17:28:42 10° SW 17:33:53 54° WNW 17:37:46 18° NNE
Cosmos 614 Rocket 4.0 17:29:38 10° S 17:34:33 51° ESE 17:34:59 49° E
Cosmos 2333 Rocket 3.5 17:33:42 10° WSW 17:38:58 36° NW 17:43:06 16° NNE
STARLINK-60 4.1 17:36:29 10° SW 17:38:58 38° SSW 17:38:58 38° SSW
Cosmos 2237 Rocket 2.4 17:34:36 10° SW 17:40:17 69° WNW 17:43:32 26° NNE
YAOGAN 1 2.4 17:36:13 10° SSE 17:40:33 87° ENE 17:44:54 10° NNW
Envisat 4.0 17:39:26 10° S 17:44:19 47° W 17:49:14 10° NNW
YAOGAN 6 3.5 17:41:36 10° S 17:45:03 48° W 17:48:34 10° NNW
Cosmos 1428 Rocket 4.3 17:38:55 10° S 17:45:05 78° E 17:51:21 10° NNE
Okean 1-7 3.0 17:41:06 10° S 17:45:26 84° W 17:46:42 46° N
Cosmos 1553 Rocket 3.9 17:39:26 10° N 17:45:49 77° ENE 17:52:15 10° SSE
Cosmos 2322 Rocket 4.5 17:43:07 10° NW 17:46:00 14° NNW 17:48:52 10° N
H-2A R/B 4.3 17:53:52 10° N 17:53:52 10° N 17:53:52 10° N
Cosmos 1140 Rocket 4.1 17:46:51 10° S 17:50:28 39° SSE 17:50:28 39° SSE
Cosmos 2219 Rocket 3.7 17:48:32 10° WSW 17:53:27 30° NW 17:57:01 16° N
SL-16 R/B 4.5 17:52:12 10° NW 17:54:38 13° NNW 17:57:01 10° N
Cosmos 407 Rocket 3.3 17:49:41 10° SSW 17:54:51 71° ESE 17:55:05 69° E
NOSS 3-1 (C) 4.0 17:50:37 10° NW 17:57:41 62° NE 17:59:49 47° E
IRS-1A Rocket 4.3 18:01:26 63° E 18:01:38 63° ENE 18:07:30 10° NNW
Cosmos 489 Rocket 4.5 17:55:53 10° NNW 18:02:16 85° WSW 18:08:07 13° SSE
Cosmos 1943 Rocket 2.0 17:57:10 10° NNW 18:02:51 74° ENE 18:03:07 72° E
Cosmos 2026 Rocket 4.1 17:57:20 10° SSW 18:03:22 72° WNW 18:09:28 10° N
USA 229 DEB 3.8 17:59:18 10° NW 18:06:26 67° NE 18:07:49 56° E
USA 229 3.8 17:59:25 10° NW 18:06:32 67° NE 18:07:53 56° E
Cosmos 1867 3.8 18:03:41 10° NW 18:09:07 66° SW 18:10:41 45° S
BREEZE-M R/B 4.0 18:05:53 10° W 18:09:04 35° WSW 18:09:04 35° WSW
NOSS 3-1 (A) 4.0 18:04:44 10° NW 18:11:42 56° NE 18:12:36 53° ENE
CSL-04 Rocket 4.2 18:07:15 10° S 18:12:25 56° WSW 18:17:40 10° NNW
Ariane Rocket 4.1 18:29:22 36° NNW 18:29:22 36° NNW 18:32:22 10° NNW
Cosmos 1655 Rocket 4.0 18:30:24 10° SSW 18:36:44 81° W 18:37:01 79° NW
SeaSat 1 4.0 18:42:04 28° NNW 18:42:04 28° NNW 18:44:24 10° NNW
Lacrosse 5 rocket 3.7 18:40:07 10° W 18:41:49 22° WNW 18:41:49 22° WNW
CZ-4 R/B 4.2 18:45:34 10° SW 18:47:58 16° W 18:50:22 10° NW
ATLAS 2AS CENTAUR R/B 3.9 18:43:18 10° WNW 18:50:29 34° N 18:51:25 33° N
USA 215 3.7 19:05:18 53° NNW 19:05:18 53° NNW 19:10:50 10° WNW
Cosmos 2369 Rocket 3.4 19:03:31 10° NW 19:07:18 37° WNW 19:07:18 37° WNW
SL-16 R/B 3.5 19:08:40 10° WSW 19:12:51 36° WNW 19:12:51 36° WNW
Cosmos 2237 Rocket 4.3 19:21:15 10° W 19:25:23 20° NW 19:25:23 20° NW
Cosmos 2344 4.5 19:29:57 10° NW 19:39:24 70° SW 19:40:45 65° SSW
Cosmos 1943 Rocket 4.4 19:41:46 10° NW 19:44:42 21° W 19:44:42 21° W
